Погода в Кереме

Папуа-Новая Гвинея     7°57′43″S   145°46′27″E
темп.,
°C
ветер,
м/с
пор.,
м/с
влажн.,
%
обл.,
%
осадки,
мм/ч
давл.,
гПа
погр.,
м
10 августа, ср
ср1001:00+26юв6785100 1.1 1010537
04:00+26юв4484100 3.1 1009438
07:00+25в228688 0.7 1010237
10:00+26ююв228173 0.9 1011474
13:00+26ююв658189 0.9 1009661
16:00+26ююв888297 1.1 1008766
19:00+26юв9985100 0.5 1010798
22:00+26юв8986100 1.4 1011726
11 августа, чт
чт1101:00+26юв6787100 2.2 1010508
04:00+25юв558891 7.6 1010438
07:00+25ссв028887 4.4 1011190
10:00+26ююз0183100 5.5 1012455
13:00+26ю4382100 0.1 1009554
16:00+26ююв4381100 0.3 1008560
19:00+26юв5586100 1.6 1010429
22:00+26вюв2287100 6.3 1011225
12 августа, пт
пт1201:00+25сз2389100 2.3 1010187
04:00+24сз469295 3.6 1009299
07:00+24сз3590100 0.5 1011243
10:00+26зсз348452 0.9 1012501
13:00+26зюз338698 1.4 1009498
16:00+26юв4484100 2.5 1008500
19:00+26юв5686100 2.1 1010547
22:00+26юв4588100 5.3 1012361
13 августа, сб
сб1301:00+25юв2288100 7.1 1011222
04:00+24с1193100 15.9 1010173
07:00+24сз3495100 10.3 1012246
10:00+24зсз4693100 18.7 1013335
13:00+25зсз4787100 0.7 1011500
16:00+26зсз468286 0.8 1009608
19:00+25сз358692 0.4 1011350
22:00+25сз238647 1.8 1012236
14 августа, вс
вс1401:00+24ссз1187100 0.5 1011164
04:00+24ссз2288100 0.6 1011219
07:00+24ссз228899 0.1 1012211
10:00+26з127827 0.4 1013407
13:00+26юз438023 0.5 1010508
16:00+26юз238211 3.2 1009281
19:00+25ююв348527 2.4 1010286
22:00+25ююв458846 5.2 1012481